This demonstration page uses our WeatherBlox Daily Observations layout. Learn more.

Left ArrowRight Arrow

34.02893, -84.19858

Hourly Observations for April 28, 2022

Temp ( °F °C ) Dew Point ( °F °C ) Humidity (%) Winds ( mph kmh ) Pressure ( in mb ) Visibility ( mi km ) Precip ( " mm )
12:53 am 00:53 Clear 50 10 42 5.6 74 74 Calm 30.13 1020 10 16 0.00 0.00
1:53 am 01:53 Clear 50 10 42 5.6 74 74 Calm 30.12 1020 10 16 0.00 0.00
2:53 am 02:53 Clear 49 9.4 42 5.6 77 77 Calm 30.12 1020 10 16 0.00 0.00
3:53 am 03:53 Clear 52 11.1 40 4.4 64 64 E 3 6 30.11 1020 10 16 0.00 0.00
4:53 am 04:53 Clear 52 11.1 39 3.9 61 61 Calm 30.11 1020 10 16 0.00 0.00
5:53 am 05:53 Clear 52 11.1 38 3.3 59 59 VRB 3 6 30.13 1020 10 16 0.00 0.00
6:53 am 06:53 Sunny 53 11.7 38 3.3 57 57 Calm 30.15 1021 10 16 0.00 0.00
7:53 am 07:53 Sunny 55 12.8 40 4.4 57 57 NE 3 6 30.17 1022 10 16 0.00 0.00
8:53 am 08:53 Sunny 60 15.6 41 5 50 50 Calm 30.18 1022 10 16 0.00 0.00
9:53 am 09:53 Sunny 65 18.3 41 5 42 42 VRB 3 6 30.18 1022 10 16 0.00 0.00
10:53 am 10:53 Sunny 69 20.6 41 5 36 36 VRB 3 6 30.19 1023 10 16 0.00 0.00
11:53 am 11:53 Sunny 72 22.2 41 5 33 33 undefined N/A 30.18 1022 10 16 0.00 0.00
11:56 am 11:56 Sunny 71 21.7 40 4.4 32 32 undefined N/A 30.17 1022 10 16 0.00 0.00
12:53 pm 12:53 Sunny 73 22.8 40 4.4 30 30 VRB 5 7 30.16 1022 10 16 0.00 0.00
1:53 pm 13:53 Sunny 74 23.3 40 4.4 29 29 VRB 5 7 30.13 1020 10 16 0.00 0.00
2:53 pm 14:53 Sunny 76 24.4 40 4.4 27 27 VRB 3 6 30.11 1020 10 16 0.00 0.00
3:53 pm 15:53 Sunny 76 24.4 41 5 29 29 VRB 6 9 30.08 1019 10 16 0.00 0.00
4:53 pm 16:53 Sunny 76 24.4 39 3.9 26 26 VRB 5 7 30.06 1018 10 16 0.00 0.00
5:53 pm 17:53 Sunny 76 24.4 40 4.4 27 27 undefined N/A 30.05 1018 10 16 0.00 0.00
6:53 pm 18:53 Sunny 74 23.3 41 5 31 31 undefined N/A 30.04 1017 10 16 0.00 0.00
7:53 pm 19:53 Sunny 70 21.1 41 5 35 35 undefined N/A 30.05 1018 10 16 0.00 0.00
8:53 pm 20:53 Clear 65 18.3 42 5.6 43 43 S 3 6 30.06 1018 10 16 0.00 0.00
9:53 pm 21:53 Clear 61 16.1 44 6.7 54 54 SSE 3 6 30.08 1019 10 16 0.00 0.00
10:53 pm 22:53 Clear 59 15 44 6.7 58 58 Calm 30.09 1019 9 14 0.00 0.00
11:53 pm 23:53 Clear 57 13.9 44 6.7 62 62 Calm 30.08 1019 10 16 0.00 0.00

Powered by AerisWeather